Buffalo, MN

5:08 AM CST on December 10, 2019 (GMT -0600)
Buffalo

Weather History for KCFE - October, 2019

Change the Weather History Date:

Saturday, October 12, 2019

  Actual Average (WUND) Record (WUND)
Temperature  
Mean Temperature 34 °F -  
Max Temperature 37 °F - - (-1)
Min Temperature 32 °F - - (-1)
Degree Days  
Heating Degree Days 30    
Moisture  
Dew Point 31 °F    
Average Humidity 85    
Maximum Humidity 93    
Minimum Humidity 75    
Precipitation  
Precipitation 0.03 in - - ()
Sea Level Pressure  
Sea Level Pressure 29.60 in    
Wind  
Wind Speed - (North)    
Max Wind Speed -    
Max Gust Speed -    
Visibility 8 miles    
Events Rain , Snow    
Averages and records for this station are not official NWS values.
T = Trace of Precipitation, MM = Missing Value Source: NWS Daily Summary

Daily Weather History Graph

Daily Weather History Graph

Search for Another Location

Airport or City:

Astronomy

Oct. 12, 2019 Rise Set
Actual Time 7:27 AM CDT 6:35 PM CDT
Civil Twilight 6:57 AM CDT 7:05 PM CDT
Nautical Twilight 6:23 AM CDT 7:39 PM CDT
Astronomical Twilight 5:49 AM CDT 8:13 PM CDT
Moon 6:37 PM CDT (10/12) 5:58 AM CDT (10/12)
Length of Visible Light 12h 07m
Length of Day
11h 08m
Waxing Gibbous, 99% of the Moon is Illuminated
Oct 12
Waxing Gibbous
Oct 13
Full
Oct 21
Last Quarter
Oct 27
New
Nov 4
First Quarter

Hourly Weather History & Observations

Time (CDT) Temp. Dew Point Humidity Pressure Visibility Wind Dir Wind Speed Gust Speed Precip Events Conditions
12:15 AM 33.8 °F 30.9 °F 89% 29.69 in 7.0 mi North - - N/A Snow Light Snow
12:35 AM 33.6 °F 30.7 °F 89% 29.68 in 7.0 mi North - - N/A Snow Light Snow
12:36 AM 33.6 °F 30.7 °F 89% 29.68 in 7.0 mi North - - N/A Snow Light Snow
12:55 AM 33.3 °F 30.4 °F 89% 29.67 in 4.0 mi North - - N/A Snow Light Snow
1:15 AM 33.8 °F 30.2 °F 87% 29.67 in 10.0 mi North - - N/A   Overcast
1:35 AM 33.8 °F 29.7 °F 85% 29.67 in 10.0 mi North - - N/A   Overcast
1:55 AM 33.8 °F 29.3 °F 84% 29.67 in 10.0 mi North - - N/A   Overcast
2:15 AM 33.8 °F 28.4 °F 81% 29.66 in 10.0 mi North - - N/A   Overcast
2:35 AM 33.8 °F 28.0 °F 79% 29.65 in 10.0 mi North - - N/A   Overcast
2:55 AM 33.8 °F 28.0 °F 79% 29.64 in 10.0 mi North - - N/A   Overcast
2:56 AM 33.8 °F 27.9 °F 79% 29.64 in 10.0 mi North - - N/A   Overcast
3:15 AM 33.8 °F 28.0 °F 79% 29.64 in 10.0 mi North - - N/A   Overcast
3:16 AM 33.8 °F 27.9 °F 79% 29.64 in 10.0 mi North - - N/A   Overcast
3:35 AM 33.8 °F 27.9 °F 79% 29.63 in 10.0 mi North - - N/A   Overcast
3:55 AM 33.8 °F 27.5 °F 78% 29.63 in 10.0 mi North - - N/A   Overcast
3:56 AM 33.8 °F 27.5 °F 78% 29.63 in 10.0 mi North - - N/A   Overcast
4:15 AM 33.8 °F 27.7 °F 78% 29.62 in 10.0 mi North - - N/A   Overcast
4:35 AM 33.8 °F 28.0 °F 79% 29.62 in 10.0 mi North - - N/A   Overcast
4:36 AM 33.8 °F 28.0 °F 79% 29.62 in 10.0 mi North - - N/A   Overcast
4:55 AM 33.8 °F 27.9 °F 79% 29.62 in 10.0 mi North - - N/A   Overcast
4:56 AM 33.8 °F 27.9 °F 79% 29.62 in 10.0 mi North - - N/A   Overcast
5:15 AM 33.1 °F 27.7 °F 81% 29.61 in 10.0 mi North - - N/A   Overcast
5:35 AM 32.5 °F 28.2 °F 84% 29.61 in 7.0 mi North - - N/A   Overcast
5:56 AM 32.4 °F 28.4 °F 85% 29.61 in 10.0 mi North - - N/A Snow Light Snow
6:35 AM 32.4 °F 28.4 °F 85% 29.61 in 7.0 mi North - - N/A Snow Light Snow
6:55 AM 32.0 °F 28.9 °F 88% 29.60 in 3.0 mi North - - N/A Snow Light Snow
7:15 AM 32.0 °F 29.3 °F 90% 29.59 in 2.0 mi North - - N/A Snow Light Snow
7:35 AM 32.0 °F 29.3 °F 90% 29.59 in 2.5 mi North - - N/A Snow Light Snow
7:55 AM 32.0 °F 30.0 °F 92% 29.59 in 1.2 mi North - - N/A Snow Light Snow
8:15 AM 32.0 °F 30.0 °F 92% 29.59 in 1.0 mi North - - N/A Snow Light Snow
8:35 AM 32.0 °F 30.2 °F 93% 29.58 in 1.5 mi North - - N/A Snow Light Snow
8:55 AM 32.4 °F 30.2 °F 92% 29.58 in 4.0 mi North - - N/A Rain Light Rain
9:16 AM 32.9 °F 30.2 °F 90% 29.57 in 1.8 mi North - - 0.01 in Snow Light Snow
9:35 AM 32.5 °F 30.6 °F 92% 29.56 in 1.5 mi North - - 0.01 in Snow Light Snow
9:55 AM 32.9 °F 30.7 °F 92% 29.55 in 3.0 mi North - - 0.01 in Snow Light Snow
10:15 AM 33.8 °F 31.1 °F 90% 29.55 in 10.0 mi North - - N/A Rain Light Rain
10:16 AM 33.8 °F 31.1 °F 90% 29.55 in 10.0 mi North - - N/A Rain Light Rain
10:35 AM 34.7 °F 31.3 °F 87% 29.56 in 10.0 mi North - - N/A   Overcast
10:55 AM 34.3 °F 30.2 °F 85% 29.56 in 10.0 mi North - - N/A   Overcast
11:15 AM 34.7 °F 30.2 °F 84% 29.56 in 10.0 mi North - - N/A   Overcast
11:16 AM 34.7 °F 30.2 °F 84% 29.56 in 10.0 mi North - - N/A   Overcast
11:35 AM 34.7 °F 30.2 °F 84% 29.56 in 10.0 mi North - - N/A   Overcast
11:55 AM 35.6 °F 30.4 °F 81% 29.56 in 10.0 mi North - - N/A   Overcast
12:35 PM 36.7 °F 30.2 °F 77% 29.55 in 10.0 mi North - - N/A   Overcast
12:36 PM 36.7 °F 30.2 °F 77% 29.55 in 10.0 mi North - - N/A   Overcast
12:55 PM 37.4 °F 30.0 °F 75% 29.55 in 10.0 mi North - - N/A   Overcast
1:15 PM 37.2 °F 30.2 °F 76% 29.55 in 10.0 mi North - - N/A   Overcast
1:35 PM 36.7 °F 31.1 °F 80% 29.55 in 10.0 mi North - - N/A   Overcast
1:55 PM 37.4 °F 30.7 °F 77% 29.55 in 10.0 mi North - - N/A   Overcast
2:15 PM 37.4 °F 31.3 °F 79% 29.55 in 10.0 mi North - - N/A   Overcast
2:35 PM 37.4 °F 30.9 °F 77% 29.55 in 10.0 mi North - - N/A   Overcast
2:36 PM 37.4 °F 30.9 °F 77% 29.55 in 10.0 mi North - - N/A   Overcast
2:55 PM 37.4 °F 30.6 °F 76% 29.55 in 10.0 mi North - - N/A   Overcast
3:15 PM 37.4 °F 31.1 °F 78% 29.55 in 10.0 mi North - - N/A   Overcast
3:16 PM 37.4 °F 31.1 °F 78% 29.55 in 10.0 mi North - - N/A   Overcast
3:36 PM 37.4 °F 31.8 °F 80% 29.56 in 10.0 mi North - - N/A   Overcast
3:55 PM 36.5 °F 32.0 °F 84% 29.56 in 5.0 mi North - - N/A   Overcast
4:15 PM 35.6 °F 32.0 °F 87% 29.57 in 3.0 mi North - - N/A Rain Light Rain
4:16 PM 35.6 °F 32.0 °F 87% 29.57 in 4.0 mi North - - N/A Rain Light Rain
4:35 PM 35.8 °F 32.0 °F 86% 29.57 in 7.0 mi North - - N/A   Overcast
4:36 PM 35.8 °F 32.0 °F 86% 29.57 in 7.0 mi North - - N/A   Overcast
4:55 PM 35.6 °F 32.0 °F 87% 29.58 in 3.0 mi North - - N/A Rain Rain
4:56 PM 35.6 °F 32.0 °F 87% 29.58 in 3.0 mi North - - N/A Rain Rain
5:15 PM 35.6 °F 32.9 °F 90% 29.58 in 2.5 mi North - - N/A Rain Light Rain
5:35 PM 35.1 °F 32.5 °F 91% 29.59 in 2.0 mi North - - N/A Rain Light Rain
5:55 PM 34.7 °F 32.5 °F 92% 29.60 in 4.0 mi North - - 0.01 in Rain Light Rain
6:15 PM 35.2 °F 32.5 °F 90% 29.60 in 10.0 mi North - - N/A Rain Light Rain
6:16 PM 35.2 °F 32.4 °F 89% 29.60 in 10.0 mi North - - N/A   Light Drizzle
6:35 PM 35.1 °F 32.0 °F 89% 29.61 in 7.0 mi North - - 0.01 in Rain Light Rain
6:55 PM 34.9 °F 32.0 °F 89% 29.61 in 10.0 mi North - - 0.01 in   Light Drizzle
7:15 PM 35.6 °F 32.0 °F 87% 29.62 in 10.0 mi North - - N/A   Overcast
7:35 PM 35.6 °F 32.0 °F 87% 29.63 in 10.0 mi North - - N/A   Light Drizzle
7:55 PM 35.6 °F 32.0 °F 87% 29.64 in 10.0 mi North - - N/A   Light Drizzle
7:56 PM 35.6 °F 32.0 °F 87% 29.64 in 10.0 mi North - - N/A   Light Drizzle
8:15 PM 34.9 °F 32.0 °F 89% 29.64 in 10.0 mi North - - N/A Rain Light Rain
8:16 PM 34.9 °F 32.0 °F 89% 29.64 in 10.0 mi North - - N/A Rain Light Rain
8:35 PM 34.9 °F 31.8 °F 89% 29.64 in 10.0 mi North - - N/A Rain Light Rain
8:55 PM 34.9 °F 31.8 °F 89% 29.64 in 10.0 mi North - - N/A Rain Light Rain
9:15 PM 34.7 °F 32.0 °F 90% 29.64 in 10.0 mi North - - N/A Rain Rain
9:16 PM 34.7 °F 32.0 °F 90% 29.64 in 10.0 mi North - - N/A Rain Light Rain
9:35 PM 34.7 °F 32.0 °F 90% 29.64 in 10.0 mi North - - N/A   Light Drizzle
9:55 PM 34.9 °F 32.0 °F 89% 29.64 in 10.0 mi North - - N/A Rain Light Rain
10:15 PM 35.1 °F 32.0 °F 89% 29.64 in 10.0 mi North - - N/A Rain Light Rain
10:35 PM 35.1 °F 32.0 °F 89% 29.64 in 10.0 mi North - - N/A Rain Light Rain
10:36 PM 35.2 °F 32.0 °F 88% 29.64 in 10.0 mi North - - N/A Rain Light Rain
10:55 PM 35.2 °F 32.0 °F 88% 29.64 in 10.0 mi North - - N/A   Overcast
11:16 PM 34.9 °F 31.6 °F 88% 29.65 in 10.0 mi North - - N/A Rain Light Rain
11:35 PM 34.7 °F 31.6 °F 89% 29.64 in 10.0 mi North - - N/A   Overcast
11:55 PM 34.3 °F 31.6 °F 90% 29.64 in 10.0 mi North - - N/A Rain Light Rain
11:56 PM 34.3 °F 31.6 °F 90% 29.64 in 10.0 mi North - - N/A Rain Light Rain